Regional Weather Roundup
Issued by NWS Glasgow, MT

Home | Current Version | Previous Version | Text Only | Print | Product List | Glossary On
Versions: 1 2 3 4 5 6 7 8 9 10 11 12 13 14 15 16 17 18 19 20 21 22 23 24 25 26 27 28 29 30 31 32 33 34 35 36 37 38 39 40 41 42 43 44 45 46 47 48 49 50
000
ASUS45 KGGW 290715
RWRGGW
HOURLY WEATHER ROUNDUP FOR NORTHEAST MONTANA
NATIONAL WEATHER SERVICE GLASGOW MONTANA
100 AM MDT SUN MAR 29 2015

NOTE: "FAIR" INDICATES FEW OR NO CLOUDS BELOW 12,000 FEET WITH NO
SIGNIFICANT WEATHER AND/OR OBSTRUCTIONS TO VISISBILITY.

NORTHEAST MONTANA


CITY           SKY/WX    TMP DP  RH WIND       PRES   REMARKS
GLASGOW        PTCLDY    41  35  79 NW21      30.01R
PLENTYWOOD       N/A     39  35  86 N25G43      N/A
WOLF POINT     MOCLDY    43  36  76 NW21G28   29.96R
JORDAN           N/A     44  39  82 NW29G37   30.02R
WINNETT          N/A     43  35  73 SW22G37     N/A
SIDNEY         CLOUDY    43  37  81 NW22G33   29.84R
GLENDIVE         N/A     43  37  81 NW30G39   29.88R
MALTA            N/A     44  39  82 W12G21      N/A

FORT PECK REPORTS


CITY           SKY/WX    TMP DP  RH WIND       PRES   REMARKS
FORT PECK        N/A     42  37  82 NW32G43     N/A
THE PINES        N/A     42  38  85 NW14G23     N/A

SOUTHEAST MONTANA


CITY           SKY/WX    TMP DP  RH WIND       PRES   REMARKS
BILLINGS       MOCLDY    47  26  44 W16       30.16R
MILES CITY     CLOUDY    45 N/A N/A NW29G41   29.99R
BAKER          RAIN      41  39  93 NW35G54   29.87R FOG
LIVINGSTON     MOCLDY    44  21  40 W21       30.23R

CENTRAL MONTANA


CITY           SKY/WX    TMP DP  RH WIND       PRES   REMARKS
HAVRE          CLOUDY    43  38  82 W13       30.10R
LEWISTOWN      CLOUDY    42  35  76 W8        30.15R
GREAT FALLS    PTCLDY    39  26  59 SW13      30.15S
CUT BANK       CLEAR     40  30  67 W22       30.10R
HELENA         MOCLDY    45  26  47 W16G25    30.25R
BUTTE          MOCLDY    35  21  56 W9        30.31R
BOZEMAN        CLEAR     28  20  71 SE8       30.28R

WESTERN MONTANA


CITY           SKY/WX    TMP DP  RH WIND       PRES   REMARKS
MISSOULA       PTCLDY    39  31  72 N5        30.31F
KALISPELL      NOT AVBL

NORTH DAKOTA


CITY           SKY/WX    TMP DP  RH WIND       PRES   REMARKS
WILLISTON      CLOUDY    41  37  86 NW22G39   29.79R
DICKINSON      RAIN      42  38  85 W30G40    29.67R
MINOT          LGT RAIN  46  43  89 NW31G38   29.58R
BISMARCK       CLOUDY    48  41  76 W17       29.61F

SOUTHERN SASKATCHEWAN


CITY           SKY/WX    TMP DP  RH WIND       PRES   REMARKS
REGINA         CLEAR     34  34 100 NW16      29.85R
ESTEVAN        CLOUDY    39  34  81 N26G40    29.74R
SWIFT CURRENT  MOCLDY    36  34  93 W10       29.97R



USA.gov is the U.S. government's official web portal to all federal, state and local government web resources and services.